NOAA 16 DEB, 41055

Orbit data source: Space-Track

NOAA 16 DEB, 41055 is space debris in SSO originally from a launch on Thu, 21 Sep 2000 UTC launched from the Air Force Western Test Range (AFWTR). Debris objects in space refer to the collection of defunct objects orbiting the Earth. Examples of debris include non-operational satellites, rocket bodies, and fragments generated from explosions, collisions, or faulty payload assembly.

Loading next visibility...
Identifier
41055, 2000-055N
Orbit
SSO
Country
Flag of USUS
Related business
Manufacturer
Unknown
Mission
Spacecraft
Bus & Motor
Unknown
Mass
Unknown
Launch date (UTC)
2000-09-21 (25 years ago)
Launch vehicle
Unknown
Launch site
Air Force Western Test Range (AFWTR)
Object type
Payload
Rocket body
Debris
Shape & HBR
Unknown shape, 0.2 m
Radar Cross Section
Small (<0.1 m²)

Expand to show TLE details & history
Last TLE update: 8 hours ago

TLE from 8 hours ago
0 NOAA 16 DEB
1 41055U 00055N   26037.85326076  .00006377  00000-0  22437-2 0  9993
2 41055  98.7831 150.4253 0016265 223.0031 136.9883 14.35139271528889
Epoch: 2026-02-06T20:28Z
TLE epoch observation values (Epoch: 2026-02-06T20:28:41.729Z)
Latitude
-0.00006°
Longitude
66.26626°
Altitude
786.054 km
Speed
7.456 km/s
True Right ascension
10h 01m 42s
True Declination
0° 00' 00"
Sunlit
Object was in full shadow at epoch
Visualization orbit readout
Latitude
Unknown
Longitude
Unknown
Altitude
Unknown
Speed
Unknown
Apparent Right ascension
Unknown
Apparent Declination
Unknown
Sunlit
N/A
Visualization observer readout
Local Sidereal Time
06:18:42
Azimuth
Unknown
Elevation
Unknown
Doppler factor
Unknown
Orbital elements
Apogee altitude
783.375 km
Perigee altitude
760.116 km
Semi-major axis
7,149.883 km
Eccentricity
0.00163
Inclination
98.7831°
RAAN
150.4253°
Arg. of periapsis
223.0031°
True anomaly
137.11525°
Mean anomaly
136.9883°
Eccentric anomaly
137.05179°
Mean motion
3.59 °/min
Orbital period
100.28 mins
BSTAR
0.0022437
Loading maneuver chart data...
Computing Atmospheric mass density...
Loading historical data...
Loading historical data...
Loading historical data...
Loading historical data...
Loading historical data...
Loading historical data...
Loading historical data...

Documentation

Showing up to 5 results
|